Regional Weather Roundup
Issued by NWS Portland, ME

Current Version | Previous Version | Text Only | Print | Product List | Glossary Off
Versions: 1 2 3 4 5 6 7 8 9 10 11 12 13 14 15 16 17 18 19 20 21 22 23 24 25 26 27 28 29 30 31 32 33 34 35 36 37 38 39 40 41 42 43 44 45 46 47 48 49 50
000 ASUS41 KGYX 220305 RWRGYX WEATHER ROUNDUP FOR MAINE AND NEW HAMPSHIRE NATIONAL WEATHER SERVICE GRAY ME 1000 PM EST MON JAN 21 2019 MEZ002-005-006-010-012-015-018-020-021-024-026-027-029-220400- MAINE CITY SKY/WX TMP DP RH WIND PRES REMARKS PORTLAND LGT SNOW 4 -5 66 W14 29.98R WCI -14 SANFORD LGT SNOW 2 -7 66 W9 30.00R BAR HARBOR FLURRIES 3 -4 72 NW12G20 29.82R WCI -13 WISCASSET CLOUDY 4 -5 66 NW9G17 29.94R ROCKLAND LGT SNOW 3 -5 69 W15G22 29.87R WCI -16 FRYEBURG CLOUDY 3 -11 52 W9G18 29.94R LEWISTONAUBURN FLURRIES 2 -5 72 W10G18 29.94R WCI -14 AUGUSTA CLOUDY 3 -6 66 NW9G20 29.89R WATERVILLE LGT SNOW 4 -4 69 MISG 29.85R BANGOR FLURRIES 4 -5 66 NW12G21 29.83R WCI -12 GREENVILLE N/A -1 -9 68 NW21G33 29.68R WCI -24 MILLINOCKET CLOUDY 4 -3 73 NW9G18 29.78R HAZE HOULTON CLOUDY 5 -3 69 N17G25 29.68R HAZE WCI -14 PRESQUE ISLE FLURRIES 5 -3 69 NW15G24 29.71R WCI -13 FRENCHVILLE LGT SNOW 4 -5 66 N21G29 29.66R WCI -17 CARIBOU CLOUDY 5 -4 66 NW18G28 29.68R WCI -15 $$ NHZ002-005-008-009-011-012-014-220400- NEW HAMPSHIRE CITY SKY/WX TMP DP RH WIND PRES REMARKS PORTSMOUTH CLOUDY 3 -8 58 W15 30.01R WCI -16 ROCHESTER LGT SNOW 3 -10 54 NW18G32 29.98R WCI -17 NASHUA CLOUDY 3 -8 60 W12G21 30.08R WCI -13 MANCHESTER CLOUDY 5 -11 47 NW18G29 30.05R WCI -15 CONCORD MOCLDY 3 -9 57 NW25G38 30.04R HAZE WCI -20 LACONIA FLURRIES 2 -10 57 W12G25 30.01R WCI -15 PLYMOUTH FAIR 2 -11 54 NW12G28 30.03R HAZE WCI -15 BERLIN LGT SNOW -1 -8 72 VRB7G18 29.93R WHITEFIELD CLOUDY -1 -11 62 W8G17 30.03R JAFFREY FAIR 1 -14 49 NW8 30.01R KEENE FAIR 1 -13 51 NW6 30.12R LEBANON FAIR 2 -13 49 N12G28 30.09R WCI -15 MT WASHINGTON SNOWSHWR -27 -27 100 NW96G104 N/A VSB 0 WCI -77 $$ VTZ005-007-008-220400- VERMONT CITY SKY/WX TMP DP RH WIND PRES REMARKS ST JOHNSBURY N/A -1 -12 59 MISG 30.09R MONTPELIER MIX PCPN -3 -12 65 NW26 30.10R WCI -29 BURLINGTON FAIR 1 -11 57 NW6 30.25R $$ MAZ007-012-024-CTZ003-RIZ002-NYZ038-NYZ072-220400- SOUTHERN NEW ENGLAND AND NY CITY SKY/WX TMP DP RH WIND PRES REMARKS BOSTON LGT SNOW 7 -6 55 NW21G26 30.09R WCI -13 WORCESTER FAIR -1 -14 53 NW22G31 30.00R WCI -24 NANTUCKET CLOUDY 7 -6 55 NW24G39 30.05R WCI -14 PROVIDENCE FAIR 5 -7 57 NW13G20 30.14R WCI -12 HARTFORD FAIR 4 -15 41 N15G22 30.20R WCI -14 ALBANY FAIR 4 -14 43 NW17 30.31R WCI -16 NEW YORK CITY FAIR 14 1 56 NW22G31 30.35R WCI -4 $$ ANZ081-ANZ082-ANZ150-NHZ014-MEZ023>029-220400- COASTAL MARINE OBSERVATIONS STATION/POSITION TIME TEMP WIND PRES WAVE AIR SEA DIR/SP/G HT/PER (UTC) (F) (DEG/KT/KT) (MB) (FT/S) MOUNT DESERT ROC 0300 9 290/ 30/ 33 1009.3R MATINICUS ROCK 0200 6 320/ 34/ 36 1009.8R ISLE OF SHOALS 0200 5 300/ 30/ 35 1014.9R CASHES LEDGE BUO 0250 12 39 1011.6R 11/ 7 $$ .............KEY.............. WCI - WIND CHILL TC - TEMPERATURE IN CELSIUS VSB - VISIBILITY IN MILES HX - HEAT INDEX FAIR- INDICATES FEW OR NO CLOUDS BELOW 12,000 FT, WITH NO SIGNIFICANT WEATHER AND/OR OBSTRUCTIONS TO VISIBILITY.

USA.gov is the U.S. government's official web portal to all federal, state and local government web resources and services.